[[{"header":{"parameterUnit":"m.s-1","parameterCategory":1,"la1":30.2991,"la2":30.254,"lo1":-89.0895,"lo2":-89.0444,"dy":0.0017,"dx":0.0017,"nx":28,"ny":28,"refTime":"2026-02-18T03:00:00:Z","depth":0,"parameterNumber":2,"parameterNumberName":"U-component_of_WINDS"},"data":[0,0,0,0,0,0,0,0,0,0,0,0,0,0,0,0,0,0,0,0,0,0,0,0,0,0,0,0,0,0,0,0,0,0,0,0,0,0,0,0,0,0,0,0,0,0,0,0,0,0,0,0,0,0,0,0,0,0,0.2205,0.2205,0,0.2239,0.224,0.224,0.2244,0.2243,0.2243,0.2243,0.228,0.2281,0.2282,0,0,0,0,0,0,0,0,0,0,0,0,0,0.2143,0.2144,0.2205,0.2205,0.2205,0.2239,0.224,0.224,0.2244,0.2243,0.2243,0.2243,0.2279,0.2281,0.2283,0,0,0,0,0,0,0,0,0,0,0,0,0,0.2173,0.2144,0.2204,0.2211,0.2212,0.2239,0.224,0.224,0.2244,0.2243,0.2243,0.2242,0.2279,0.2281,0.2283,0.2306,0,0,0.2289,0.229,0,0,0,0,0,0,0,0,0.2171,0.2175,0.221,0.2211,0.2212,0.2237,0.2232,0.2262,0.2244,0.2232,0.2243,0.2242,0.2266,0.2269,0.2277,0.2308,0.2309,0.2289,0.229,0.2291,0.2292,0,0,0,0,0,0,0,0.2169,0.2173,0.2218,0.221,0.2212,0.2213,0.2217,0.2237,0.2252,0.2233,0.2233,0.2237,0.2267,0.2275,0.2278,0.231,0.2289,0.2291,0.2292,0.2293,0.2362,0.2362,0,0,0,0,0,0,0.2165,0.2172,0.2217,0.2219,0.219,0.2215,0.2219,0.2229,0.2251,0.2254,0.2238,0.2237,0.2272,0.2275,0.2279,0.2308,0.2291,0.2293,0.2294,0.2361,0.2362,0.2362,0,0,0,0,0,0,0.2164,0.2169,0.2216,0.2196,0.2202,0.2216,0.2228,0.223,0.2239,0.2255,0.2258,0.2244,0.2271,0.2276,0.2299,0.2309,0.2294,0.2296,0.236,0.2361,0.2362,0.2366,0,0,0,0,0,0,0.2162,0.2169,0.2177,0.2196,0.2203,0.2235,0.2229,0.2231,0.2242,0.2242,0.2261,0.2264,0.2271,0.2296,0.2301,0.2312,0.2297,0.2359,0.2361,0.2362,0.2365,0.2366,0.2368,0,0,0,0,0,0.216,0.2177,0.2178,0.2183,0.2214,0.2236,0.224,0.2247,0.2243,0.2252,0.2262,0.2263,0.2307,0.2298,0.2304,0.2315,0.2359,0.236,0.2362,0.2364,0.2366,0.2368,0,0,0,0,0,0,0.216,0.218,0.2181,0.2204,0.2218,0.2236,0.2248,0.225,0.2265,0.2265,0.2274,0.2279,0.2301,0.231,0.2301,0.2339,0.2333,0.2335,0.2332,0.2335,0.2336,0.2334,0.2299,0,0,0,0,0,0.2163,0.2178,0.2195,0.2214,0.2221,0.2233,0.2243,0.2248,0.2263,0.2269,0.2281,0.2296,0.2313,0.2324,0.2341,0.2366,0.237,0.2376,0.2378,0.2379,0.2382,0.2396,0.2399,0.2367,0.2367,0.2367,0,0,0.2169,0.2181,0.2191,0.2214,0.2226,0.2242,0.2238,0.2256,0.2268,0.2272,0.2294,0.2303,0.2321,0.2345,0.2356,0.2353,0.2391,0.2381,0.2382,0.2384,0.2398,0.2401,0.2403,0.2368,0.2368,0.2368,0,0,0.2188,0.2199,0.2216,0.2228,0.2245,0.2253,0.2257,0.2275,0.2281,0.2303,0.2306,0.2321,0.2351,0.2363,0.2373,0.2397,0.2399,0.2402,0.2411,0.2425,0.2428,0.243,0.2439,0.2442,0.2404,0.2404,0.2404,0,0.2193,0.2218,0.2225,0.2243,0.2253,0.2257,0.2275,0.2285,0.2307,0.2315,0.2311,0.2348,0.236,0.2387,0.2393,0.2401,0.2406,0.24,0.2427,0.2429,0.2431,0.244,0.2443,0.2405,0.2405,0.2404,0.2404,0,0.2224,0.2241,0.2253,0.2274,0.2286,0.2303,0.2314,0.2325,0.2329,0.2337,0.236,0.2374,0.2394,0.2401,0.2405,0.2429,0.2427,0.2425,0.2419,0.2435,0.2443,0.2446,0.2405,0.2405,0.2405,0.2405,0,0,0.2245,0.2269,0.2273,0.2283,0.2302,0.2316,0.2334,0.2353,0.2362,0.2377,0.2393,0.2417,0.2416,0.2427,0.2432,0.2444,0.2463,0.2441,0.2442,0.2445,0.2491,0.2493,0.2497,0.2464,0.2465,0.2465,0.249,0,0.2267,0.2299,0.2306,0.2333,0.235,0.2353,0.2369,0.2382,0.2391,0.2406,0.2415,0.2433,0.2429,0.2436,0.2448,0.2458,0.2473,0.2457,0.248,0.248,0.2476,0.2501,0.2503,0.2525,0.2493,0.2494,0.2494,0,0.2297,0.2312,0.2341,0.2358,0.2366,0.238,0.2398,0.2412,0.2428,0.2433,0.2445,0.2449,0.2469,0.2461,0.2488,0.2477,0.2487,0.2493,0.2494,0.2497,0.2489,0.2505,0.2533,0.2536,0.2499,0.2499,0.2498,0,0.231,0.2338,0.2359,0.2367,0.2387,0.2397,0.2406,0.2421,0.2432,0.2448,0.2455,0.2473,0.2483,0.2497,0.2506,0.2499,0.2533,0.2526,0.2538,0.2538,0.2546,0.2545,0.2576,0.2551,0.2551,0.2551,0.255,0,0.2334,0.2352,0.2365,0.2378,0.2399,0.2407,0.2427,0.2436,0.2449,0.2464,0.2468,0.2482,0.2493,0.2509,0.2516,0.2537,0.2542,0.2547,0.2549,0.2547,0.2546,0.2554,0.2553,0.2551,0.2551,0.2551,0.2551,0,0.2352,0.2362,0.2385,0.2402,0.2407,0.2421,0.2437,0.245,0.2458,0.2477,0.2482,0.2495,0.2514,0.2524,0.2548,0.2552,0.2577,0.2578,0.2572,0.2573,0.2585,0.2584,0.2622,0.2627,0.2598,0.2598,0.2599,0,0.2367,0.2381,0.24,0.241,0.242,0.2436,0.2447,0.2456,0.2467,0.2486,0.2497,0.2516,0.2532,0.2562,0.2574,0.2592,0.2593,0.2606,0.2596,0.2594,0.2594,0.2594,0.2595,0.2607,0.2608,0.2608,0.2608,0,0.2393,0.2397,0.2413,0.2431,0.2444,0.2458,0.2473,0.2481,0.2492,0.2505,0.2524,0.2536,0.256,0.2579,0.2598,0.2608,0.261,0.2611,0.2615,0.2614,0.261,0.2613,0.2577,0.261,0.261,0.261,0.261,0.261,0.2411,0.2424,0.2439,0.2457,0.2468,0.2481,0.2495,0.2504,0.252,0.2541,0.2545,0.2565,0.2581,0.2606,0.2616,0.2633,0.263,0.2636,0.2638,0.2639,0.264,0.2606,0.2636,0.2636,0.2636,0.2636,0.2636,0,0.2438,0.2448,0.2464,0.2484,0.2498,0.2498,0.2514,0.2525,0.2543,0.2557,0.2573,0.2595,0.2613,0.2627,0.2645,0.2656,0.2658,0.2661,0.266,0.2663,0.2641,0.2636,0.2659,0.2659,0.2659,0.2659,0.2659,0.2659,0.2454,0.2475,0.2481,0.2509,0.2518,0.2538,0.2547,0.256,0.2571,0.2596,0.2611,0.2619,0.2633,0.2653,0.267,0.2673,0.2681,0.2684,0.2687,0.2667,0.2664,0.2662,0.2657,0.2685,0.2685,0.2708,0.2708,0.2709]},{"header":{"parameterUnit":"m.s-1","parameterCategory":1,"la1":30.2991,"la2":30.254,"lo1":-89.0895,"lo2":-89.0444,"dy":0.0017,"dx":0.0017,"nx":28,"ny":28,"refTime":"2026-02-18T03:00:00:Z","depth":0,"parameterNumber":3,"parameterNumberName":"V-component_of_WINDS"},"data":[0,0,0,0,0,0,0,0,0,0,0,0,0,0,0,0,0,0,0,0,0,0,0,0,0,0,0,0,0,0,0,0,0,0,0,0,0,0,0,0,0,0,0,0,0,0,0,0,0,0,0,0,0,0,0,0,0,0,2.9101,2.9101,0,2.9167,2.9168,2.9169,2.9167,2.9166,2.9165,2.9164,2.9232,2.9234,2.9237,0,0,0,0,0,0,0,0,0,0,0,0,0,2.8972,2.8975,2.9101,2.9102,2.9102,2.9167,2.9168,2.9169,2.9167,2.9166,2.9165,2.9164,2.9231,2.9234,2.9237,0,0,0,0,0,0,0,0,0,0,0,0,0,2.9032,2.8975,2.9101,2.9109,2.9111,2.9167,2.9168,2.9169,2.9167,2.9166,2.9165,2.9163,2.923,2.9234,2.9237,2.9289,0,0,2.925,2.9251,0,0,0,0,0,0,0,0,2.9029,2.9037,2.9107,2.9109,2.911,2.9157,2.9147,2.9209,2.9168,2.9146,2.9164,2.9163,2.9208,2.9214,2.9229,2.9292,2.9295,2.925,2.9252,2.9254,2.9255,0,0,0,0,0,0,0,2.9025,2.9034,2.9127,2.9108,2.911,2.911,2.9117,2.9159,2.9184,2.9148,2.9148,2.9156,2.9209,2.9225,2.9231,2.9296,2.925,2.9253,2.9256,2.9257,2.9407,2.9408,0,0,0,0,0,0,2.9019,2.9031,2.9125,2.9129,2.9065,2.9113,2.9121,2.9144,2.9183,2.9188,2.9157,2.9155,2.9219,2.9226,2.9233,2.9298,2.9254,2.9258,2.926,2.9405,2.9407,2.9409,0,0,0,0,0,0,2.9016,2.9027,2.9122,2.908,2.9092,2.9117,2.9142,2.9146,2.9162,2.919,2.9194,2.9169,2.9218,2.9227,2.9276,2.93,2.9259,2.9263,2.9403,2.9406,2.9408,2.9427,0,0,0,0,0,0,2.9012,2.9026,2.9046,2.908,2.9094,2.9164,2.9144,2.9148,2.9169,2.9168,2.9203,2.9207,2.9218,2.927,2.928,2.9305,2.9266,2.9401,2.9405,2.9407,2.9424,2.9429,2.9434,0,0,0,0,0,2.9008,2.9048,2.9047,2.9058,2.912,2.9165,2.9173,2.9185,2.9171,2.9192,2.921,2.9206,2.9295,2.9275,2.9286,2.9312,2.94,2.9404,2.9407,2.9422,2.9428,2.9434,0,0,0,0,0,0,2.9015,2.9053,2.9052,2.9105,2.9132,2.9165,2.9191,2.9191,2.9222,2.922,2.9232,2.924,2.9289,2.9305,2.9282,2.9365,2.9346,2.9352,2.9353,2.936,2.9365,2.936,2.9269,0,0,0,0,0,2.9023,2.9057,2.9088,2.9131,2.9145,2.9166,2.9186,2.9193,2.9221,2.9233,2.9254,2.9282,2.9316,2.9339,2.9371,2.9426,2.9434,2.945,2.9455,2.9458,2.9464,2.9496,2.9503,2.9421,2.9421,2.9421,0,0,2.904,2.9064,2.9085,2.9134,2.9156,2.9191,2.9175,2.9213,2.924,2.9238,2.9286,2.9302,2.9334,2.9386,2.941,2.9401,2.9488,2.9463,2.9466,2.947,2.95,2.9508,2.9515,2.9423,2.9423,2.9422,0,0,2.9089,2.911,2.915,2.9172,2.9206,2.9219,2.9228,2.9262,2.9273,2.9321,2.9321,2.9352,2.9411,2.9434,2.9454,2.9512,2.9511,2.9522,2.9549,2.958,2.9586,2.9592,2.9615,2.9622,2.9527,2.9527,2.9528,0,2.9105,2.9159,2.917,2.9208,2.923,2.9231,2.9271,2.9292,2.9335,2.935,2.9339,2.9414,2.9435,2.9493,2.9508,2.9523,2.9535,2.9519,2.9584,2.959,2.9596,2.9618,2.9626,2.9529,2.9529,2.9528,2.9528,0,2.9178,2.9215,2.9243,2.9285,2.931,2.9349,2.9366,2.939,2.9394,2.9409,2.9458,2.9484,2.9523,2.9537,2.9541,2.9596,2.959,2.9581,2.9563,2.9605,2.9626,2.9634,2.9531,2.953,2.953,2.9529,0,0,2.9234,2.9282,2.9292,2.9312,2.9349,2.9378,2.9418,2.9456,2.9477,2.9506,2.9541,2.959,2.9583,2.9606,2.9612,2.9639,2.9686,2.9628,2.9629,2.9639,2.975,2.9757,2.9767,2.9684,2.9686,2.9687,2.9748,0,2.9288,2.9359,2.937,2.9433,2.9468,2.9469,2.9503,2.953,2.9545,2.9577,2.9593,2.9629,2.9616,2.963,2.9656,2.9674,2.9708,2.967,2.9717,2.9719,2.9711,2.9777,2.9785,2.9841,2.9756,2.9757,2.9758,0,2.9361,2.9393,2.9459,2.9493,2.9508,2.9539,2.9576,2.9606,2.9637,2.9646,2.9671,2.9675,2.9716,2.9695,2.9753,2.9726,2.9746,2.9758,2.9761,2.9767,2.9742,2.9787,2.9859,2.9868,2.9771,2.977,2.9769,0,2.9397,2.9457,2.9505,2.9521,2.9561,2.9583,2.9601,2.963,2.9653,2.9685,2.9701,2.9737,2.9757,2.9785,2.9799,2.9781,2.9857,2.9835,2.9866,2.9866,2.9883,2.9882,2.9961,2.9893,2.9893,2.9893,2.9892,0,2.9458,2.9498,2.9522,2.9551,2.9597,2.961,2.9655,2.9672,2.9698,2.9732,2.9734,2.9765,2.9781,2.9814,2.9825,2.9872,2.9881,2.989,2.9893,2.9891,2.989,2.9905,2.9902,2.9895,2.9894,2.9894,2.9894,0,2.9507,2.9524,2.9577,2.9611,2.962,2.9653,2.9682,2.9711,2.9725,2.9767,2.9778,2.9801,2.9841,2.9857,2.9905,2.9912,2.9967,2.9966,2.9957,2.9959,2.9989,2.9987,3.0082,3.0096,3.0017,3.0017,3.0018,0,2.9545,2.9577,2.9615,2.9637,2.9656,2.9692,2.9716,2.9729,2.9754,2.9792,2.9816,2.9856,2.9889,2.9952,2.9973,3.001,3.0011,3.0042,3.0017,3.0015,3.0014,3.0013,3.0017,3.0047,3.0048,3.0049,3.0049,0,2.9612,2.9619,2.9653,2.9691,2.972,2.975,2.9779,2.9797,2.9815,2.9843,2.9884,2.9909,2.9959,2.9999,3.0038,3.0056,3.0056,3.0057,3.0066,3.0066,3.006,3.0065,2.9972,3.0055,3.0054,3.0054,3.0053,3.0053,2.9658,2.9687,2.9719,2.9757,2.9781,2.9808,2.9838,2.9856,2.9891,2.9933,2.9939,2.9983,3.0013,3.0065,3.0085,3.012,3.0112,3.0125,3.0129,3.0133,3.0136,3.0053,3.0127,3.0127,3.0127,3.0127,3.0126,0,2.9727,2.9747,2.9783,2.9824,2.9855,2.9852,2.9884,2.991,2.9949,2.9978,3.001,3.0058,3.0097,3.0121,3.016,3.0184,3.0185,3.0194,3.0193,3.0198,3.014,3.0128,3.0192,3.0192,3.0192,3.0192,3.0192,3.0192,2.9766,2.9816,2.9827,2.9888,2.9908,2.9952,2.9971,2.9997,3.002,3.0073,3.0106,3.0121,3.0148,3.019,3.0225,3.0232,3.0247,3.0257,3.0262,3.0208,3.0201,3.0195,3.0185,3.0259,3.0259,3.0318,3.0318,3.0319]}]]